This is the latest recevied weather packets stored in our database for station/object DL6DJ-15. If no packets are shown the sender has not sent any weather packets the latest 10 day(s).
| Time | Temp. | Humidity | Pressure | Rain* | Wind** | Luminosity | Snow |
|---|---|---|---|---|---|---|---|
| 1788584942 | 14.44° C | 99% | 1021.9 hPa | - | - | - | - |
| 1788584642 | 14.44° C | 100% | 1021.7 hPa | - | - | - | - |
| 1788584342 | 14.44° C | 99% | 1021.6 hPa | - | - | - | - |
| 1788584041 | 14.44° C | 100% | 1021.4 hPa | - | - | - | - |
| 1788583741 | 14.44° C | 99% | 1021.5 hPa | - | - | - | - |
| 1788583440 | 14.44° C | 99% | 1021.3 hPa | - | - | - | - |
| 1788583140 | 14.44° C | 99% | 1021.3 hPa | - | - | - | - |
| 1788582840 | 14.44° C | 98% | 1021.7 hPa | - | - | - | - |
| 1788582539 | 13.89° C | 98% | 1021.4 hPa | - | - | - | - |
| 1788582239 | 13.89° C | 98% | 1021.3 hPa | - | - | - | - |
| 1788581939 | 14.44° C | 97% | 1021.2 hPa | - | - | - | - |
| 1788581638 | 14.44° C | 96% | 1021.3 hPa | - | - | - | - |
| 1788581338 | 14.44° C | 96% | 1021.3 hPa | - | - | - | - |
| 1788581037 | 14.44° C | 95% | 1021.3 hPa | - | - | - | - |
| 1788580737 | 14.44° C | 96% | 1021.5 hPa | - | - | - | - |
| 1788580437 | 14.44° C | 94% | 1021.6 hPa | - | - | - | - |
| 1788580136 | 14.44° C | 92% | 1021.5 hPa | - | - | - | - |
| 1788579836 | 15° C | 89% | 1021.3 hPa | - | - | - | - |
| 1788579535 | 15.56° C | 88% | 1021.3 hPa | - | - | - | - |
| 1788579235 | 16.11° C | 82% | 1021.5 hPa | - | - | - | - |
| 1788578935 | 16.11° C | 76% | 1021.3 hPa | - | - | - | - |
| 1788578634 | 16.11° C | 75% | 1021 hPa | - | - | - | - |
| 1788578334 | 16.11° C | 73% | 1020.8 hPa | - | - | - | - |
| 1788578033 | 16.67° C | 74% | 1020.9 hPa | - | - | - | - |
| 1788577733 | 16.67° C | 73% | 1020.6 hPa | - | - | - | - |
* Rain since midnight (hover to see other rain measurements)
** Current wind speed in m/s (hover to see current wind gust speed)